CAPE
19 77 169 231 182 113 174 150 95 267 507 589 616 521 451 415 408 376 380 302 339 395 541 765 895 786 730 488 104 62 0 0 0
0 0 0 30 121 101 94 99 121 265 448 534 615 630 572 506 496 517 472 444 297 404 513 690 827 874 763 579 109 58 0 0 0
0 0 0 0 0 3 23 87 112 271 419 445 515 712 738 723 682 667 621 552 331 401 452 810 841 949 898 601 177 43 0 0 0
0 0 0 0 0 1 5 23 89 198 402 451 414 794 889 892 862 829 776 649 506 480 551 621 867 938 900 624 245 75 4 0 0
0 0 0 0 0 0 0 0 19 99 348 465 427 543 983 1007 988 962 904 761 725 599 562 614 823 842 943 730 354 141 71 3 0
0 0 0 0 0 0 0 0 0 48 180 475 523 476 696 979 1043 1017 972 878 863 717 729 631 743 833 905 779 491 216 131 89 43
0 0 0 0 0 0 0 0 0 13 131 361 586 609 610 809 945 1021 1099 1056 968 767 871 742 792 847 936 871 612 346 253 163 102
0 0 0 0 0 0 0 0 13 60 145 377 629 735 771 892 992 962 1023 1222 1172 1043 973 972 813 916 931 947 726 520 294 231 163
0 0 0 0 0 0 0 0 86 178 296 546 733 910 956 1066 1193 1245 1205 1144 1244 1255 1144 1192 946 865 976 942 908 624 232 286 310
0 0 0 0 0 0 0 0 182 268 464 691 849 1004 1138 1304 1386 1454 1525 1426 1297 1253 1234 1228 1064 1016 985 1020 1082 537 225 182 522
0 0 0 0 0 0 0 0 23 283 415 757 1108 1142 1210 1448 1620 1647 1658 1709 1599 1488 1360 1304 1248 1122 1021 985 931 476 188 135 744
0 0 0 0 0 0 0 0 19 283 565 912 1205 1422 1448 1593 1755 1825 1848 1915 1898 1802 1647 1467 1480 1304 1044 1047 1062 363 46 78 650
0 0 0 0 0 0 0 0 88 372 653 1043 1207 1665 1727 1812 1906 1902 1926 2117 2107 2035 1926 1751 1737 1374 1087 983 1238 62 0 85 544
392 811 492 0 0 0 0 0 245 497 609 978 1342 1580 1835 1946 2083 2175 2097 2237 2337 2358 2295 2115 1926 1612 1417 1394 1152 253 0 5 459
34 234 653 613 577 776 985 119 260 514 624 841 1149 1530 1861 2013 2228 2324 2291 2450 2480 2548 2568 2569 2117 1839 1785 1669 1278 283 1 2 458
0 0 0 0 0 0 13 396 358 490 558 780 495 1124 1527 2130 2272 2513 2598 2611 2620 2637 2642 2592 2281 1976 2031 1436 138 0 1 1 5
0 0 0 0 0 0 0 0 0 0 0 592 927 554 1022 1492 2141 2443 2725 2681 2615 2713 2740 2717 2309 2213 1839 951 167 11 2 1 0
0 0 0 0 0 0 0 0 0 0 0 0 321 1271 607 1136 1600 1733 2560 2613 2469 2678 2796 2659 2549 2136 1074 479 258 27 0 0 0
1 1 1 5 66 61 0 0 0 0 0 0 0 580 1465 960 1418 1736 2326 196 1 27 1356 1138 1005 730 416 66 1 1 0 0 0
0 0 0 0 4 120 245 255 12 0 0 0 0 0 1184 1548 1463 1212 181 512 316 0 0 1 4 40 85 1 0 0 1 1 2
CIN
-363 -361 -390 -419 -454 -534 -544 -526 -628 -586 -526 -491 -429 -424 -429 -387 -336 -290 -256 -285 -273 -259 -211 -177 -173 -179 -187 -234 -377 -432 -27 -0 -0
-0 -0 -0 -496 -466 -480 -583 -579 -619 -706 -626 -573 -520 -471 -445 -418 -363 -312 -294 -280 -322 -301 -276 -212 -199 -180 -186 -230 -387 -460 -0 -0 -0
-0 -0 -0 -0 -0 -504 -563 -585 -687 -710 -667 -670 -611 -518 -460 -427 -394 -352 -323 -293 -350 -331 -335 -225 -209 -177 -176 -231 -365 -508 -0 -0 -0
-0 -0 -0 -0 -0 -162 -569 -589 -623 -727 -704 -675 -649 -530 -461 -411 -386 -340 -308 -300 -339 -368 -327 -310 -232 -211 -209 -257 -375 -511 -157 -0 -0
-0 -0 -0 -0 -0 -0 -110 -35 -654 -700 -730 -696 -734 -688 -532 -478 -429 -394 -355 -353 -321 -354 -360 -321 -264 -259 -236 -261 -360 -495 -504 -71 -0
-0 -0 -0 -0 -0 -0 -0 -0 -0 -676 -746 -724 -706 -698 -634 -520 -468 -424 -400 -383 -324 -347 -337 -345 -296 -282 -260 -279 -357 -470 -500 -516 -552
-0 -0 -0 -0 -0 -0 -0 -0 -0 -834 -810 -765 -718 -671 -664 -605 -568 -534 -474 -438 -385 -392 -350 -349 -317 -325 -316 -315 -357 -441 -492 -533 -544
-0 -0 -0 -0 -0 -0 -0 -0 -691 -893 -856 -859 -780 -733 -696 -678 -634 -576 -504 -431 -393 -374 -364 -369 -392 -341 -335 -322 -357 -423 -517 -536 -583
-0 -0 -0 -0 -0 -0 -0 -7 -963 -880 -922 -891 -850 -795 -772 -710 -621 -570 -548 -519 -441 -376 -371 -322 -362 -382 -347 -349 -359 -437 -651 -581 -519
-0 -0 -0 -0 -0 -0 -0 -0 -935 -872 -869 -895 -894 -858 -787 -698 -620 -567 -518 -482 -455 -444 -413 -385 -388 -369 -357 -364 -368 -509 -705 -748 -473
-0 -0 -0 -0 -0 -0 -0 -0 -794 -787 -918 -915 -859 -837 -767 -682 -625 -589 -503 -437 -446 -439 -434 -442 -424 -423 -423 -400 -425 -583 -807 -864 -406
-0 -0 -0 -0 -0 -0 -0 -0 -763 -941 -948 -887 -798 -780 -768 -717 -664 -609 -512 -461 -453 -418 -402 -425 -416 -416 -444 -425 -444 -736 -1145 -952 -441
-0 -0 -0 -0 -0 -0 -0 -0 -922 -800 -918 -876 -829 -749 -781 -750 -665 -604 -517 -463 -418 -374 -353 -371 -330 -376 -447 -506 -435 -1112 -0 -914 -483
-965 -842 -976 -0 -0 -0 -0 -0 -890 -798 -813 -836 -824 -760 -653 -637 -603 -538 -547 -511 -387 -304 -268 -252 -268 -339 -406 -409 -468 -528 -0 -992 -510
-1206 -1000 -843 -894 -968 -926 -920 -770 -888 -837 -829 -856 -727 -649 -552 -520 -480 -446 -450 -433 -503 -389 -201 -202 -232 -230 -239 -268 -333 -833 -0 -334 -427
-0 -0 -0 -0 -0 -0 -121 -1039 -998 -924 -974 -881 -920 -742 -654 -515 -465 -424 -396 -335 -343 -280 -245 -260 -240 -287 -222 -237 -753 -0 -0 -0 -167
-0 -0 -0 -0 -0 -0 -0 -0 -0 -0 -0 -908 -757 -819 -792 -660 -490 -424 -310 -316 -243 -198 -228 -264 -326 -310 -410 -523 -710 -616 -0 -0 -0
-0 -0 -0 -0 -0 -0 -0 -0 -0 -0 -0 -0 -937 -695 -890 -779 -604 -516 -310 -298 -312 -249 -226 -194 -219 -222 -395 -557 -565 -237 -0 -0 -0
-0 -0 -0 -764 -637 -622 -0 -0 -0 -0 -0 -0 -0 -888 -630 -778 -609 -489 -272 -961 -0 -52 -461 -474 -464 -523 -580 -621 -0 -0 -0 -0 -0
-0 -0 -0 -0 -322 -898 -795 -794 -248 -0 -0 -0 -0 -2 -527 -441 -470 -536 -950 -632 -692 -0 -0 -0 -30 -879 -644 -139 -0 -0 -0 -0 -0
Wind_Speed
22 22 21 24 24 20 21 22 20 20 21 21 20 19 20 17 16 11 11 11 8 8 7 8 8 9 8 8 8 6 6 4 5
15 21 22 24 25 22 22 21 23 24 22 21 21 21 18 18 16 16 14 13 10 9 8 7 9 10 10 9 9 9 8 5 6
16 18 19 21 21 22 21 23 22 21 23 23 22 21 18 17 18 18 16 13 13 12 10 9 10 10 10 10 10 9 9 6 5
16 16 18 20 19 20 22 20 19 21 21 21 20 19 18 18 17 17 16 14 14 14 11 11 11 11 11 11 11 11 10 8 8
13 11 15 17 19 20 19 22 22 21 21 21 21 20 19 20 18 17 17 16 16 13 13 11 12 12 12 12 11 12 12 11 10
8 10 10 11 12 16 19 21 21 21 20 23 19 18 19 18 19 18 18 17 16 13 13 12 12 12 13 13 13 13 13 13 12
10 9 10 9 10 16 17 19 21 20 21 19 18 18 18 19 20 20 19 19 17 15 15 13 14 14 14 13 13 14 14 13 12
8 10 8 9 11 13 14 16 17 18 17 18 19 20 20 22 20 18 17 17 16 15 15 15 16 15 14 13 13 11 14 13 14
10 11 10 8 9 9 12 17 18 18 19 21 21 21 22 19 18 18 19 18 17 16 15 15 14 16 16 15 12 16 18 17 13
13 12 11 9 12 14 15 16 17 18 19 17 20 21 19 19 17 18 18 17 16 17 17 15 15 16 15 16 15 17 20 21 12
16 13 11 11 10 10 11 12 15 13 12 15 17 18 16 17 18 19 17 17 19 18 16 18 16 17 17 14 13 18 21 23 15
14 13 11 11 6 6 6 10 15 15 15 16 16 17 18 19 19 20 19 19 20 17 16 16 16 14 15 16 16 21 21 19 14
8 4 2 3 2 2 3 3 6 11 13 15 16 17 21 20 19 19 19 19 18 16 14 14 12 13 15 20 18 17 22 22 10
4 4 6 6 7 7 3 4 8 8 8 14 18 13 12 14 17 18 19 19 16 14 14 12 14 15 15 18 17 14 21 22 13
6 7 8 7 10 7 6 5 6 7 6 2 4 6 9 11 13 12 12 17 17 18 15 15 14 13 12 10 11 14 18 21 13
6 6 6 5 8 10 10 10 7 8 1 3 1 7 9 12 13 14 14 13 14 13 17 15 13 13 11 8 5 8 21 20 13
5 4 5 4 7 9 7 6 5 4 1 2 4 6 7 8 11 12 14 12 12 13 14 16 16 17 17 14 10 9 8 9 8
6 5 5 5 5 5 4 2 4 5 6 5 4 3 5 8 10 12 13 13 12 15 15 14 13 11 9 11 10 7 4 10 4
8 8 6 8 7 6 5 3 4 3 4 4 6 8 5 7 8 9 10 8 4 15 11 15 16 16 12 7 19 17 18 17 11
10 11 11 11 9 10 10 12 10 6 6 6 4 7 9 7 10 10 12 11 10 10 8 17 11 10 17 19 20 25 18 17 29
Wind_Direction
214 213 211 212 212 203 203 202 197 196 197 200 199 198 199 199 196 196 205 203 196 198 196 201 181 192 196 188 181 181 168 174 185
211 211 212 215 210 207 204 201 201 195 196 203 198 200 199 197 196 196 201 204 199 195 192 191 182 185 191 187 182 180 172 185 194
219 213 210 213 209 210 208 206 202 198 201 200 198 198 199 197 196 198 199 197 196 199 191 187 179 186 187 186 182 179 178 186 179
214 215 212 213 210 208 208 208 199 199 201 199 196 194 196 199 196 199 198 199 201 200 192 185 182 185 185 188 182 179 183 191 185
229 212 211 208 208 207 202 201 200 199 199 199 198 193 192 196 197 194 194 198 201 195 195 190 188 185 186 191 189 183 185 190 193
225 235 237 217 209 203 199 196 199 200 199 205 197 192 194 195 196 195 196 200 201 194 190 188 188 188 190 190 190 188 192 195 194
231 221 224 223 214 207 199 197 195 194 201 200 193 195 195 198 198 196 194 196 196 192 191 183 189 193 192 193 193 195 193 193 195
232 253 257 217 204 199 193 190 196 198 195 189 191 193 196 201 199 198 197 196 195 192 191 191 190 189 196 192 195 197 193 192 198
242 238 243 225 205 196 184 189 193 193 190 191 188 194 200 197 195 193 196 194 191 191 190 195 191 196 197 195 201 197 191 190 196
234 237 234 226 205 195 196 198 193 195 199 188 191 197 196 195 193 197 197 193 190 192 192 185 193 198 197 204 206 187 193 193 195
227 232 226 231 234 219 206 189 188 196 180 190 194 198 194 192 192 196 193 192 196 195 192 190 188 194 196 199 206 191 197 192 198
226 233 227 231 261 271 240 190 198 178 173 185 192 196 195 193 193 193 192 195 198 197 194 194 194 192 190 197 206 197 190 176 193
245 251 157 242 230 210 217 244 163 168 181 182 194 200 200 193 192 193 196 199 199 198 196 195 186 187 194 204 212 188 180 183 183
61 76 88 111 84 101 92 157 152 165 169 198 206 202 208 200 191 194 196 190 193 197 194 185 193 192 196 206 208 188 182 177 180
67 70 64 57 83 68 46 41 135 153 194 348 164 178 190 200 205 206 214 205 177 181 193 190 186 197 215 210 196 161 175 177 170
77 69 65 59 72 64 40 42 74 91 22 57 2 188 198 201 198 202 190 198 187 185 188 186 190 190 203 195 175 174 168 173 191
93 84 79 65 70 70 54 33 54 96 73 28 141 203 210 188 200 198 197 191 193 198 197 201 194 193 180 170 166 165 173 170 158
80 84 95 115 113 112 112 329 5 354 346 340 322 258 223 200 197 197 198 198 197 196 202 201 189 192 178 162 144 139 147 153 152
54 45 32 51 57 76 92 114 80 28 315 302 301 284 249 211 197 191 189 159 84 19 138 122 115 120 137 111 129 118 129 159 119
59 55 47 41 36 36 23 17 15 15 358 356 295 259 276 228 202 176 161 160 149 126 49 79 99 150 143 161 158 140 182 166 141